星链-30067 (STARLINK-30067 )

导读 | 豆包AI

STARLINK-30067是美国SpaceX星链计划中的卫星,于2023年5月19日发射。它承担着为全球提供高速互联网服务的使命,尤其覆盖偏远地区,助力缩小数字鸿沟。作为低轨卫星,信号传输延迟更低,提升用户体验。星链卫星星座持续组网,该卫星加入增强了网络容量与稳定性,推动全球互联进程。

基本信息
目录编号:
56693
目录名称:
STARLINK-30067
国际标识:
2023-067F
轨道中心:
EARTH
卫星名称:
星链-30067
卫星全名:
星链-30067 (STARLINK-30067 )
卫星状态:
在轨 (已飞行1077 天)
发射日期:
2023-05-19 UTC
国别 :
美国 (US)
星等 :
--
轨道信息
数据来源 国际轨道数据
星历时间: 2026-04-29T07:51:58+0800
1天前
查看轨道信息
半长轴: 6863.74km
偏心率: 0.00022
轨道倾角: 43.005°
近地点辐角 256.161°
升交点赤经 357.175°
平近点角 103.900°
近地点: 484.092km
远地点: 487.114km
周期: 94.319分钟
每日圈数: 15.267277
详细信息
固有亮度:
5
最大亮度:
0.3
卫星平台:
Starlink v2.0 mini
覆盖范围:
全球
运营商:
太空探索技术公司
运营商所在国:
美国
制造商(研发单位):
太空探索技术公司
制造商所在国:
美国
使用方式:
暂无
卫星简介
星链(Starlink)计划是由太空探索技术公司(SpaceX)提出的一个巨型低轨卫星互联网星座项目,计划在2019年至2024年间在太空搭建由约1.2万颗卫星组成的“星链”网络,其中1584颗将部署在地球上空550千米处的近地轨道,并从2020年开始工作。该卫星仍在工作。
2D轨道图
3D轨道图
轨道高度分析图
轨道倾角分析图
轨道综合分析图
查看轨道综合分析图